Location: CHKOBrdy
(49.7003°N, 13.8414°E)
Time: 20:20:31
(UTC+01:00)

ISS - Visible Passes

Search period start: 24 March 2023 00:00
Search period end: 03 April 2023 01:00
Orbit: 414 x 422 km, 51.6° (Epoch: 24 March)

Date Brightness Start Highest point End Pass type
(mag) Time Alt. Az. Time Alt. Az. Time Alt. Az.
24 Mar -3.7 20:19:06 10° WNW 20:22:26 65° N 20:22:45 60° NE visible
25 Mar -3.4 19:31:10 10° WNW 19:34:29 60° N 19:36:46 18° E visible
25 Mar -1.7 21:08:00 10° WNW 21:09:42 27° W 21:09:42 27° W visible
26 Mar -4.0 21:20:04 10° WNW 21:23:25 90° SW 21:23:41 75° ESE visible
27 Mar -3.7 20:32:04 10° WNW 20:35:25 74° NNE 20:37:38 20° E visible
27 Mar -1.6 22:08:58 10° W 22:10:34 23° W 22:10:34 23° W visible
28 Mar -3.4 21:20:52 10° WNW 21:24:08 50° SSW 21:24:30 47° S visible
29 Mar -3.7 20:32:48 10° WNW 20:36:08 70° SSW 20:38:26 18° ESE visible
29 Mar -1.1 22:10:13 10° W 22:11:22 15° WSW 22:11:22 15° WSW visible
30 Mar -2.2 21:21:46 10° W 21:24:34 25° SW 21:25:19 23° SSW visible
31 Mar -2.6 20:33:28 10° W 20:36:34 36° SSW 20:39:17 12° SSE visible
01 Apr -1.0 21:23:29 10° WSW 21:24:40 11° SW 21:25:50 10° SSW visible
02 Apr -1.4 20:34:23 10° W 20:36:42 17° SW 20:39:00 10° S visible
